Location: Unspecified
(0.0000°N, 0.0000°E)
Time: 16:23:27
(UTC+00:00)

Vanguard 1 - Pass Details

Date: 28 November 2019
Orbit: 651 x 3832 km, 34.3° (Epoch: 11 December)

Event Time Altitude Azimuth Distance (km) Brightness Sun altitude
Rises 00:49:15 0° 217° (SW) 6,335 14.3 -64.0°
Reaches altitude 10° 00:53:50 10° 207° (SSW) 5,742 14.0 -63.3°
Maximum altitude 01:10:36 33° 148° (SSE) 5,034 13.7 -60.7°
Drops below altitude 10° 01:30:18 10° 91° (E) 6,806 14.6 -57.2°
Sets 01:36:15 0° 82° (E) 7,608 14.9 -56.1°
